Powrót do katalogu

FREGAT R/B

AktywnyHEO
NORAD 42720·ROCKET BODY·🇷🇺 Russia

Wystrzelony May 25, 2017 z Plesetsk Cosmodrome

Loading…

Następne Przeloty (najbliższe 24 godziny)

TLE

ŚwieżeSource: Space-Track

Epoka: Sep 9, 2026, 03:07 UTC

1 42720U 17027B   26252.13038866  .00001431  00000-0  00000-0 0  9993
2 42720  62.4581 221.5263 7053848 268.0068  17.2010  2.01920662 68529

Śledź FREGAT R/B w czasie rzeczywistym z AllMySat

Download on the App Store